Simultaneous Nadir Overpasses (SNOs) Predictions

Prediction of SNOs near equator between AQUA and NPP Satellite Orbit:

Table of predicted SNOs near equator for the next 14.0 days since TLE Epoch: 10/24/2014
Index Date (AQUA) Time (AQUA) AQUA Lat,Lon Date (NPP) Time (NPP) NPP Lat,Lon Distance(km) Time Diff (sec)
1 10/25/2014 20:58:34 29.96,-115.49 10/25/2014 20:52:09 30.14,-114.72 76.86 385
2 10/25/2014 21:47:57 -29.99, 52.16 10/25/2014 21:42:49 -30.07, 52.63 46.22 308
3 10/25/2014 22:37:27 29.95,-140.21 10/25/2014 22:33:36 29.98,-140.05 15.80 231
4 10/25/2014 23:23:15 -17.05, 30.56 10/25/2014 23:20:36 -17.05, 30.57 0.36 159
5 10/26/2014 00:04:48 -11.82,-155.58 10/26/2014 00:03:14 -11.82,-155.59 0.88 94
6 10/26/2014 00:49:33 28.53, 15.99 10/26/2014 00:49:09 28.56, 15.86 12.54 24
7 10/26/2014 01:38:41 -29.88,-176.04 10/26/2014 01:39:34 -29.95,-176.46 41.33 53
8 10/26/2014 02:28:03 29.92, -8.37 10/26/2014 02:30:13 30.06, -9.10 71.75 130
9 10/28/2014 12:25:35 -29.96,-167.24 10/28/2014 12:18:10 -30.16,-166.23 99.80 445
10 10/28/2014 13:15:06 29.99, 0.37 10/28/2014 13:08:58 30.12, 1.08 69.27 368
11 10/28/2014 14:04:28 -29.95, 168.04 10/28/2014 13:59:38 -30.06, 168.42 38.85 290
12 10/28/2014 14:53:59 29.98, -24.34 10/28/2014 14:50:26 30.02, -24.27 8.64 213
13 10/28/2014 15:37:36 -9.17, 148.17 10/28/2014 15:35:11 -9.17, 148.19 1.26 145
14 10/28/2014 16:19:08 -19.69, -37.94 10/28/2014 16:17:48 -19.69, -37.94 0.21 80
15 10/28/2014 17:05:47 29.52, 132.12 10/28/2014 17:05:40 29.56, 131.93 18.77 7
16 10/28/2014 17:55:11 -29.92, -60.16 10/28/2014 17:56:21 -30.02, -60.65 48.81 70
17 10/28/2014 18:44:34 29.89, 107.49 10/28/2014 18:47:01 30.07, 106.69 79.40 147
18 10/31/2014 04:42:05 -30.00, -51.37 10/31/2014 04:34:59 -30.21, -50.46 91.78 426
19 10/31/2014 05:31:35 29.97, 116.25 10/31/2014 05:25:46 30.12, 116.87 61.39 349
20 10/31/2014 06:20:58 -29.99, -76.09 10/31/2014 06:16:26 -30.05, -75.79 30.66 272
21 10/31/2014 07:10:28 29.97, 91.54 10/31/2014 07:07:13 29.96, 91.54 0.22 195
22 10/31/2014 07:52:24 -3.06, -94.64 10/31/2014 07:50:15 -3.06, -94.65 0.97 129
23 10/31/2014 08:33:58 -25.72, 79.37 10/31/2014 08:32:54 -25.72, 79.36 0.99 64
24 10/31/2014 09:22:11 29.90,-111.91 10/31/2014 09:22:22 29.97,-112.17 26.34 11
25 10/31/2014 10:11:41 -29.93, 55.72 10/31/2014 10:13:10 -30.03, 55.14 56.85 89
26 10/31/2014 11:01:04 29.90,-136.63 10/31/2014 11:03:50 30.07,-137.52 87.40 166
27 11/02/2014 20:58:34 -29.99, 64.51 11/02/2014 20:51:47 -30.16, 65.35 83.36 407
28 11/02/2014 21:48:04 29.97,-127.86 11/02/2014 21:42:34 30.08,-127.33 52.93 330
29 11/02/2014 22:37:27 -29.99, 39.79 11/02/2014 22:33:15 -30.06, 40.00 22.48 252
30 11/02/2014 23:25:15 23.83,-151.05 11/02/2014 23:22:17 23.83,-151.05 0.80 178
31 11/03/2014 00:06:34 5.34, 23.03 11/03/2014 00:04:41 5.34, 23.02 0.99 113
32 11/03/2014 00:50:01 -27.28,-164.36 11/03/2014 00:49:16 -27.29,-164.43 7.67 45
33 11/03/2014 01:38:40 29.89, 3.97 11/03/2014 01:39:11 29.96, 3.62 34.69 31
34 11/03/2014 02:28:10 -29.93, 171.60 11/03/2014 02:29:58 -30.07, 170.95 65.23 108
35 11/03/2014 03:17:33 29.90, -20.75 11/03/2014 03:20:38 30.12, -21.71 95.88 185
36 11/05/2014 13:15:01 -29.94,-179.59 11/05/2014 13:08:35 -30.12,-178.85 74.67 386
37 11/05/2014 14:04:32 29.99, -11.98 11/05/2014 13:59:23 30.10, -11.54 44.11 309
38 11/05/2014 14:53:54 -29.94, 155.69 11/05/2014 14:50:02 -29.96, 155.82 13.48 232
39 11/05/2014 15:39:23 15.40, -33.21 11/05/2014 15:36:42 15.40, -33.21 0.16 161
40 11/05/2014 16:20:41 13.84, 140.76 11/05/2014 16:19:05 13.84, 140.75 1.04 96
41 11/05/2014 17:06:09 -28.46, -48.17 11/05/20
